EW6288 Weather Reports


Display with metric or nautical units.
time (UTC)temp
F
wind
direction
speed
MPH
gust
MPH
rain 1hr
in
rain 24hr
in
rain mn
in
humidity
%
barometer
mb
20260503003351 73 0 0.0 2.0 0.00 0.07 0.00 54 1018.2
20260503003122 73 0 0.0 2.0 0.00 0.08 0.00 53 1018.1
20260503002354 74 0 0.0 6.0 0.00 0.08 0.00 54 1018.1
20260503001850 74 0 1.0 6.0 0.00 0.09 0.00 54 1018.1
20260503001350 74 304 1.0 7.0 0.00 0.10 0.00 54 1018.0
20260503000849 74 59 1.0 7.0 0.00 0.10 0.00 52 1018.0
20260503000352 74 316 0.0 4.0 0.00 0.12 0.00 53 1018.1
20260502235851 74 65 0.0 4.0 0.00 0.15 0.00 52 1018.0
20260502235350 74 65 1.0 4.0 0.00 0.18 0.00 52 1018.0
20260502234850 74 65 2.0 9.0 0.00 0.19 0.00 49 1017.9
20260502234351 74 71 2.0 9.0 0.00 0.19 0.00 50 1017.9
20260502233852 74 5 2.0 9.0 0.00 0.20 0.00 52 1017.9
20260502233351 74 327 2.0 9.0 0.00 0.20 0.00 52 1017.8
20260502232849 74 9 2.0 5.0 0.00 0.21 0.00 52 1017.9
20260502232350 74 27 2.0 5.0 0.00 0.21 0.00 52 1017.8
20260502231846 74 24 2.0 13.0 0.00 0.22 0.00 50 1017.8
20260502231615 74 31 2.0 13.0 0.00 0.23 0.00 51 1017.8
20260502230846 75 11 2.0 6.0 0.00 0.23 0.00 49 1017.8
20260502230841 74 0 2.0 5.0 0.00 0.23 0.00 51 1017.8
20260502225845 75 306 2.0 6.0 0.00 0.23 0.00 47 1017.7
20260502225841 75 47 2.0 6.0 0.00 0.23 0.00 46 1017.6
20260502224840 75 5 3.0 11.0 0.00 0.24 0.00 51 1017.6
20260502224339 75 23 3.0 11.0 0.00 0.24 0.00 47 1017.6
20260502223837 75 254 3.0 9.0 0.00 0.24 0.00 49 1017.6
20260502223339 75 313 3.0 9.0 0.00 0.24 0.00 50 1017.7
20260502223107 75 281 2.0 9.0 0.00 0.24 0.00 49 1017.7
20260502222607 75 344 2.0 9.0 0.00 0.24 0.00 49 1017.7
20260502222454 75 81 3.0 9.0 0.00 0.24 0.00 46 1017.7
20260502221330 75 11 2.0 9.0 0.00 0.24 0.00 48 1017.8
20260502220829 75 59 2.0 9.0 0.00 0.25 0.00 44 1017.9
20260502220332 75 32 3.0 9.0 0.00 0.25 0.00 46 1017.8
20260502215829 76 28 3.0 10.0 0.00 0.26 0.00 47 1017.8
20260502215328 76 19 3.0 10.0 0.00 0.28 0.00 48 1017.8
20260502215058 75 355 3.0 9.0 0.00 0.31 0.00 48 1017.9
20260502214329 75 331 3.0 11.0 0.00 0.33 0.00 47 1017.9
20260502213828 75 327 3.0 11.0 0.00 0.35 0.00 49 1017.9
20260502213333 76 49 3.0 11.0 0.00 0.43 0.00 48 1018.0
20260502213329 75 296 3.0 11.0 0.00 0.38 0.00 51 1018.1
20260502212329 76 314 3.0 12.0 0.00 0.49 0.00 51 1018.0
20260502212323 76 306 3.0 10.0 0.00 0.47 0.00 50 1018.1
20260502211321 76 336 3.0 12.0 0.00 0.49 0.00 51 1017.9
20260502211052 76 311 3.0 13.0 0.00 0.49 0.00 52 1018.1
20260502210315 76 60 2.0 13.0 0.00 0.49 0.00 49 1018.1
20260502205814 76 89 1.0 8.0 0.00 0.50 0.00 48 1018.2
20260502205313 76 41 3.0 13.0 0.00 0.51 0.00 52 1018.1
20260502205044 76 334 3.0 13.0 0.00 0.51 0.00 51 1018.2
20260502204313 76 21 2.0 8.0 0.00 0.53 0.00 53 1018.2
20260502203811 76 10 2.0 9.0 0.00 0.56 0.00 50 1018.2
20260502203311 76 321 3.0 9.0 0.00 0.58 0.00 50 1018.4
20260502202811 76 22 3.0 9.0 0.00 0.60 0.00 52 1018.4
20260502202307 76 44 2.0 9.0 0.00 0.62 0.00 49 1018.5
20260502201805 76 26 2.0 9.0 0.00 0.65 0.00 49 1018.5
20260502201305 75 57 2.0 9.0 0.00 0.66 0.00 50 1018.6
20260502200804 76 12 3.0 9.0 0.00 0.67 0.00 53 1018.7
20260502200534 75 64 2.0 9.0 0.00 0.67 0.00 49 1018.8
20260502195802 75 22 2.0 8.0 0.00 0.67 0.00 48 1018.8
20260502195301 76 32 3.0 10.0 0.00 0.67 0.00 52 1018.8
20260502194802 75 13 3.0 10.0 0.00 0.67 0.00 53 1018.9
20260502194307 75 355 2.0 8.0 0.00 0.68 0.00 54 1018.9
20260502193801 74 38 2.0 8.0 0.00 0.68 0.00 51 1018.9
20260502193302 74 299 2.0 8.0 0.00 0.69 0.00 48 1019.1
20260502192758 75 49 2.0 11.0 0.00 0.70 0.00 51 1019.2
20260502192300 75 29 3.0 11.0 0.00 0.71 0.00 54 1019.3
20260502191757 75 219 4.0 13.0 0.00 0.75 0.00 54 1019.3
20260502191249 75 302 2.0 13.0 0.00 0.75 0.00 55 1019.5
20260502190749 74 5 2.0 8.0 0.00 0.75 0.00 55 1019.4
20260502190247 74 19 3.0 11.0 0.00 0.76 0.00 51 1019.4
20260502185745 75 254 3.0 11.0 0.00 0.77 0.00 59 1019.4
20260502185243 74 22 2.0 9.0 0.00 0.77 0.00 58 1019.3
20260502185011 74 329 3.0 9.0 0.00 0.78 0.00 53 1019.4
20260502184238 74 10 3.0 10.0 0.00 0.83 0.00 53 1019.5
20260502183738 74 30 3.0 10.0 0.00 1.04 0.00 58 1019.5
20260502183239 73 318 3.0 10.0 0.00 1.22 0.00 57 1019.7
20260502182728 73 316 4.0 13.0 0.00 1.23 0.00 55 1019.8
20260502182501 74 23 4.0 13.0 0.00 1.24 0.00 59 1019.7
20260502181730 73 289 4.0 14.0 0.00 1.25 0.00 59 1019.7
20260502181227 73 52 3.0 14.0 0.00 1.26 0.00 60 1019.8
20260502180723 72 325 2.0 9.0 0.00 1.32 0.00 59 1019.8
20260502180718 72 67 3.0 10.0 0.00 1.47 0.00 56 1019.9
20260502170205 70 52 3.0 13.0 0.00 1.60 0.00 61 1020.4
20260502164207 69 41 4.0 11.0 0.00 1.61 0.00 64 1020.3
20260502163701 69 319 3.0 11.0 0.00 1.61 0.00 67 1020.2
20260502163159 69 338 3.0 9.0 0.00 1.62 0.00 66 1020.3
20260502162659 68 15 3.0 12.0 0.00 1.63 0.00 70 1020.2
20260502162201 68 355 3.0 12.0 0.00 1.65 0.00 73 1020.2
20260502161931 66 15 3.0 10.0 0.00 1.71 0.00 78 1020.2
20260502161159 64 0 3.0 10.0 0.00 1.78 0.00 83 1020.2
20260502160656 64 0 2.0 8.0 0.00 1.83 0.00 85 1020.2
20260502160200 63 36 2.0 12.0 0.00 1.84 0.00 86 1020.3
20260502152200 60 355 4.0 9.0 0.00 1.84 0.00 91 1020.2
20260502151657 60 319 2.0 12.0 0.00 1.84 0.00 91 1020.2
20260502151158 59 63 2.0 12.0 0.00 1.84 0.00 91 1020.1
20260502150659 59 344 3.0 12.0 0.00 1.84 0.00 91 1020.2
20260502150157 59 66 3.0 12.0 0.00 1.84 0.00 91 1020.3
20260502130647 55 335 2.0 7.0 0.00 1.92 0.00 91 1019.0
20260502130413 55 321 1.0 5.0 0.00 1.92 0.00 91 1018.8
20260502123641 54 43 1.0 6.0 0.00 1.93 0.00 91 1018.6
20260502123138 54 342 1.0 6.0 0.00 1.93 0.00 91 1018.5
20260502122639 54 307 2.0 7.0 0.00 1.93 0.00 91 1018.4
20260502122138 54 347 2.0 7.0 0.00 1.93 0.00 91 1018.3
20260502121640 54 24 1.0 4.0 0.00 1.93 0.00 91 1018.2
20260502121133 54 51 1.0 4.0 0.00 1.93 0.00 91 1018.1
20260502120636 54 355 1.0 4.0 0.00 1.93 0.00 91 1018.1
20260502120132 54 22 1.0 4.0 0.00 1.93 0.00 91 1018.1
20260502115903 54 329 1.0 3.0 0.00 1.93 0.00 91 1018.1
20260502115136 54 327 0.0 3.0 0.00 1.93 0.00 91 1017.9
20260502115132 54 329 1.0 3.0 0.00 1.93 0.00 91 1018.0
20260502114129 54 338 0.0 3.0 0.00 1.93 0.00 91 1018.0
20260502113903 54 338 0.0 5.0 0.00 1.93 0.00 91 1018.1
20260502113359 54 338 0.0 5.0 0.00 1.93 0.00 91 1018.1
20260502112630 54 338 1.0 5.0 0.00 1.93 0.00 91 1018.0
20260502112123 54 338 1.0 5.0 0.00 1.93 0.00 91 1017.8
20260502111625 54 342 1.0 4.0 0.00 1.93 0.00 91 1017.8
20260502111112 55 342 1.0 4.0 0.00 1.93 0.00 91 1017.7
20260502110613 55 11 1.0 4.0 0.00 1.93 0.00 91 1017.6
20260502110115 55 355 2.0 5.0 0.00 1.93 0.00 91 1017.4
20260502105612 55 9 2.0 5.0 0.00 1.93 0.00 91 1017.4
20260502105104 55 5 1.0 5.0 0.00 1.93 0.00 91 1017.3
20260502104603 55 30 2.0 5.0 0.00 1.94 0.00 91 1017.3
20260502104100 55 335 2.0 5.0 0.00 1.94 0.00 91 1017.2
20260502103602 55 14 1.0 4.0 0.00 1.94 0.00 91 1017.1
20260502103557 55 23 1.0 4.0 0.00 1.94 0.00 91 1017.1
20260502102550 55 26 2.0 5.0 0.00 1.94 0.00 91 1017.1
20260502102052 55 331 1.0 5.0 0.00 1.95 0.00 91 1017.1
20260502101548 55 313 1.0 4.0 0.00 1.96 0.00 91 1017.1
20260502101046 55 312 0.0 4.0 0.00 1.96 0.00 91 1016.8
20260502100552 55 37 1.0 4.0 0.00 1.97 0.00 91 1016.6
20260502100546 55 27 0.0 2.0 0.00 1.97 0.00 91 1016.8
20260502091033 56 67 2.0 6.0 0.00 2.03 0.00 91 1016.0
20260502090535 56 36 2.0 5.0 0.00 2.03 0.00 91 1015.9
20260502071515 56 334 1.0 6.0 0.00 2.09 0.00 91 1015.6
20260502071018 56 28 2.0 6.0 0.00 2.10 0.00 91 1015.7
20260502070517 56 38 3.0 6.0 0.00 2.10 0.00 91 1015.7
20260502070016 56 53 2.0 8.0 0.00 2.11 0.00 91 1015.8
20260502065514 56 22 2.0 8.0 0.00 2.11 0.00 91 1015.8
20260502065249 56 327 3.0 8.0 0.00 2.11 0.00 91 1015.8
20260502064516 56 306 3.0 8.0 0.00 2.11 0.00 91 1015.8
20260502064010 56 259 2.0 7.0 0.00 2.11 0.00 91 1015.7
20260502063740 57 18 2.0 8.0 0.00 2.11 0.00 91 1015.6
20260502063013 57 21 2.0 8.0 0.00 2.11 0.00 91 1015.5
20260502062509 57 30 2.0 10.0 0.00 2.11 0.00 91 1015.4
20260502062012 57 0 2.0 10.0 0.00 2.11 0.00 91 1015.4
20260502061508 57 0 2.0 8.0 0.00 2.11 0.00 91 1015.4
20260502061016 57 36 3.0 10.0 0.00 2.12 0.00 91 1015.3
20260502061008 57 24 3.0 8.0 0.00 2.11 0.00 91 1015.3
20260502060007 57 5 3.0 10.0 0.00 2.12 0.00 91 1015.2
20260502055504 57 32 2.0 8.0 0.00 2.12 0.00 91 1015.2
20260502055235 57 51 2.0 10.0 0.00 2.12 0.00 91 1015.2
20260502054508 57 28 2.0 10.0 0.00 2.12 0.00 91 1015.3
20260502054005 57 18 2.0 10.0 0.00 2.13 0.00 91 1015.3
20260502053506 57 355 2.0 10.0 0.00 2.14 0.00 91 1015.3
20260502053004 57 315 2.0 7.0 0.00 2.16 0.00 91 1015.2
20260502052504 57 19 2.0 7.0 0.00 2.20 0.00 91 1015.3
20260502052003 57 34 2.0 7.0 0.00 2.22 0.00 91 1015.3
20260502051502 57 38 2.0 7.0 0.00 2.22 0.00 91 1015.3
20260502051231 57 302 2.0 6.0 0.00 2.22 0.00 91 1015.2
20260502050502 57 41 2.0 7.0 0.00 2.22 0.00 91 1015.1
20260502045958 57 18 2.0 7.0 0.00 2.22 2.22 91 1015.1
20260502045457 57 5 2.0 12.0 0.00 2.22 2.22 91 1015.1
20260502044955 57 355 2.0 12.0 0.00 2.22 2.22 91 1015.1
20260502044456 57 26 3.0 11.0 0.01 2.22 2.22 91 1015.3
20260502043954 57 327 2.0 8.0 0.01 2.22 2.22 91 1015.3
20260502043454 57 55 2.0 8.0 0.01 2.22 2.22 91 1015.4
20260502042953 58 44 2.0 8.0 0.01 2.22 2.22 91 1015.4
20260502042453 58 39 2.0 8.0 0.01 2.22 2.22 91 1015.3
20260502041953 58 13 3.0 9.0 0.01 2.22 2.22 91 1015.3
20260502041454 58 17 3.0 11.0 0.01 2.22 2.22 91 1015.2
20260502041226 58 56 3.0 11.0 0.01 2.22 2.22 91 1015.1
20260502040726 58 336 3.0 9.0 0.01 2.22 2.22 91 1015.1
20260502035951 58 5 3.0 9.0 0.01 2.22 2.22 91 1015.3
20260502035450 58 17 3.0 9.0 0.01 2.22 2.22 91 1015.2
20260502034949 58 15 3.0 9.0 0.01 2.22 2.22 91 1015.3
20260502034447 58 346 3.0 10.0 0.00 2.21 2.21 91 1015.0
20260502033947 58 33 3.0 10.0 0.00 2.21 2.21 91 1014.9
20260502033447 58 30 2.0 10.0 0.00 2.21 2.21 91 1014.8
20260502032950 58 21 3.0 10.0 0.01 2.21 2.21 91 1014.8
20260502032945 58 64 3.0 10.0 0.01 2.21 2.21 91 1014.8
20260502031945 58 5 3.0 10.0 0.01 2.21 2.21 91 1014.6
20260502031444 58 19 3.0 8.0 0.01 2.21 2.21 91 1014.3
20260502030946 58 38 3.0 8.0 0.01 2.21 2.21 91 1014.3
20260502030442 58 12 2.0 9.0 0.02 2.21 2.21 91 1014.2
20260502030215 58 5 2.0 9.0 0.02 2.21 2.21 91 1013.5
20260502025442 58 0 3.0 9.0 0.02 2.21 2.21 91 1013.5
20260502024943 59 355 3.0 10.0 0.03 2.21 2.21 91 1013.5
20260502024444 59 51 3.0 10.0 0.03 2.21 2.21 91 1013.6
20260502023940 59 240 3.0 10.0 0.03 2.21 2.21 91 1013.5
20260502023436 59 21 2.0 9.0 0.03 2.21 2.21 91 1013.4
20260502022934 59 51 2.0 7.0 0.02 2.20 2.20 91 1013.4
20260502022435 59 0 3.0 9.0 0.03 2.20 2.20 91 1013.3
20260502021930 60 42 3.0 9.0 0.03 2.20 2.20 91 1013.2
20260502021430 60 14 2.0 9.0 0.04 2.20 2.20 91 1013.5
20260502020931 60 36 2.0 5.0 0.04 2.20 2.20 91 1013.6
20260502020430 60 19 2.0 6.0 0.03 2.19 2.19 91 1013.3
20260502015932 60 33 2.0 7.0 0.04 2.19 2.19 91 1013.2
20260502015431 60 55 2.0 7.0 0.04 2.19 2.19 91 1013.1
20260502014929 60 48 2.0 6.0 0.03 2.18 2.18 91 1013.3
20260502014427 60 338 2.0 9.0 0.03 2.18 2.18 91 1013.3
20260502013926 60 29 3.0 9.0 0.03 2.18 2.18 91 1013.1
20260502013429 60 325 2.0 9.0 0.04 2.18 2.18 91 1012.8
20260502013424 60 355 2.0 9.0 0.03 2.18 2.18 91 1012.8
20260502012423 60 13 2.0 9.0 0.03 2.17 2.17 91 1012.5
20260502011921 60 321 2.0 9.0 0.04 2.17 2.17 91 1012.4
20260502011421 60 336 3.0 9.0 0.03 2.16 2.16 91 1012.2
20260502010922 60 19 3.0 9.0 0.04 2.16 2.16 91 1012.2
20260502010418 60 13 3.0 9.0 0.06 2.16 2.16 91 1012.3
20260502005918 60 304 2.0 9.0 0.08 2.15 2.15 91 1012.7
20260502005416 60 321 2.0 8.0 0.11 2.15 2.15 91 1012.7
20260502004914 60 309 3.0 12.0 0.12 2.15 2.15 91 1012.3
20260502004415 60 337 2.0 12.0 0.12 2.15 2.15 91 1011.7
20260502003915 60 11 2.0 7.0 0.13 2.15 2.15 91 1011.3